Latrobe, PA

10:34 AM EST on December 15, 2019 (GMT -0500)
Arnold Palmer Regional

Weather History for KLBE - June, 2019

Change the Weather History Date:

Wednesday, June 12, 2019

  Actual Average Record
Temperature  
Mean Temperature 58 °F -  
Max Temperature 73 °F 76 °F 89 °F (1999)
Min Temperature 44 °F 57 °F 44 °F (2006)
Degree Days  
Heating Degree Days 6    
Growing Degree Days 8 (Base 50)    
Moisture  
Dew Point 49 °F    
Average Humidity 76    
Maximum Humidity 100    
Minimum Humidity 44    
Precipitation  
Precipitation 0.00 in - - ()
Sea Level Pressure  
Sea Level Pressure 30.08 in    
Wind  
Wind Speed 4 mph (SE)    
Max Wind Speed 17 mph    
Max Gust Speed 29 mph    
Visibility 11 miles    
Events      
Averages and records for this station are not official NWS values.
T = Trace of Precipitation, MM = Missing Value Source: NWS Daily Summary

Daily Weather History Graph

Daily Weather History Graph

Search for Another Location

Airport or City:

Astronomy

Jun. 12, 2019 Rise Set
Actual Time 5:47 AM EDT 8:47 PM EDT
Civil Twilight 5:14 AM EDT 9:20 PM EDT
Nautical Twilight 4:32 AM EDT 10:02 PM EDT
Astronomical Twilight 3:43 AM EDT 10:51 PM EDT
Moon 3:52 PM EDT (6/12) 3:01 AM EDT (6/12)
Length of Visible Light 16h 06m
Length of Day
15h 00m
Waxing Gibbous, 76% of the Moon is Illuminated
Jun 12
Waxing Gibbous
Jun 17
Full
Jun 25
Last Quarter
Jul 2
New
Jul 9
First Quarter

Hourly Weather History & Observations

Time (EDT) Temp. Dew Point Humidity Pressure Visibility Wind Dir Wind Speed Gust Speed Precip Events Conditions
12:15 AM 51.8 °F 50.0 °F 94% 30.19 in 10.0 mi Calm Calm - N/A   Clear
12:35 AM 51.8 °F 51.8 °F 100% 30.19 in 10.0 mi Calm Calm - N/A   Clear
12:55 AM 50.0 °F 50.0 °F 100% 30.19 in 10.0 mi Calm Calm - N/A   Clear
1:15 AM 50.0 °F 50.0 °F 100% 30.18 in 10.0 mi Calm Calm - N/A   Clear
1:35 AM 50.0 °F 50.0 °F 100% 30.18 in 10.0 mi Calm Calm - N/A   Clear
1:55 AM 50.0 °F 50.0 °F 100% 30.17 in 10.0 mi Calm Calm - N/A   Clear
2:15 AM 48.2 °F 48.2 °F 100% 30.16 in 10.0 mi Calm Calm - N/A   Clear
2:35 AM 48.2 °F 48.2 °F 100% 30.16 in 10.0 mi Calm Calm - N/A   Clear
2:55 AM 48.2 °F 48.2 °F 100% 30.16 in 10.0 mi Calm Calm - N/A   Clear
3:15 AM 48.2 °F 48.2 °F 100% 30.16 in 10.0 mi Calm Calm - N/A   Clear
3:35 AM 48.2 °F 48.2 °F 100% 30.16 in 10.0 mi Calm Calm - N/A   Clear
3:55 AM 46.4 °F 46.4 °F 100% 30.16 in 10.0 mi Calm Calm - N/A   Clear
4:15 AM 46.4 °F 46.4 °F 100% 30.16 in 10.0 mi Calm Calm - N/A   Clear
4:35 AM 46.4 °F 46.4 °F 100% 30.16 in 10.0 mi Calm Calm - N/A   Clear
4:55 AM 46.4 °F 46.4 °F 100% 30.16 in 10.0 mi Calm Calm - N/A   Clear
5:15 AM 46.4 °F 46.4 °F 100% 30.16 in 10.0 mi Calm Calm - N/A   Clear
5:35 AM 44.6 °F 44.6 °F 100% 30.17 in 10.0 mi Calm Calm - N/A   Clear
5:55 AM 44.6 °F 44.6 °F 100% 30.17 in 10.0 mi Calm Calm - N/A   Clear
6:51 AM 46.4 °F 46.4 °F 100% 30.17 in 20.0 mi Calm Calm - N/A   Clear
7:51 AM 53.6 °F 51.8 °F 94% 30.17 in 20.0 mi Calm Calm - N/A   Clear
8:51 AM 66.2 °F 48.2 °F 52% 30.16 in 20.0 mi Calm Calm - N/A   Clear
9:51 AM 66.2 °F 48.2 °F 52% 30.14 in 20.0 mi ESE 5.8 mph - N/A   Clear
10:51 AM 68.0 °F 48.2 °F 49% 30.12 in 15.0 mi SE 17.3 mph 25.3 mph N/A   Scattered Clouds
11:53 AM 69.8 °F 50.0 °F 49% 30.09 in 10.0 mi ESE 13.8 mph 23.0 mph N/A   Partly Cloudy
12:53 PM 71.6 °F 50.0 °F 46% 30.07 in 10.0 mi SE 15.0 mph 25.3 mph N/A   Clear
1:53 PM 73.4 °F 50.0 °F 44% 30.04 in 10.0 mi SSE 12.7 mph 20.7 mph N/A   Clear
2:53 PM 73.4 °F 51.8 °F 47% 30.03 in 10.0 mi SE 17.3 mph 28.8 mph N/A   Scattered Clouds
3:50 PM 71.6 °F 51.8 °F 50% 30.02 in 10.0 mi SE 13.8 mph 25.3 mph N/A   Scattered Clouds
4:50 PM 73.4 °F 51.8 °F 47% 30.01 in 10.0 mi ESE 17.3 mph - N/A   Scattered Clouds
5:50 PM 71.6 °F 51.8 °F 50% 29.98 in 10.0 mi ESE 17.3 mph - N/A   Mostly Cloudy
6:50 PM 69.8 °F 51.8 °F 53% 29.95 in 10.0 mi ESE 11.5 mph 23.0 mph N/A   Mostly Cloudy
7:50 PM 68.0 °F 51.8 °F 56% 29.95 in 10.0 mi ESE 17.3 mph 28.8 mph N/A   Mostly Cloudy
8:50 PM 68.0 °F 51.8 °F 56% 29.92 in 10.0 mi ESE 17.3 mph 28.8 mph N/A   Mostly Cloudy
9:50 PM 66.2 °F 50.0 °F 56% 29.92 in 10.0 mi ESE 13.8 mph 25.3 mph N/A   Clear
10:15 PM 66.2 °F 50.0 °F 56% 29.91 in 10.0 mi SE 13.8 mph 23.0 mph N/A   Clear
10:35 PM 66.2 °F 50.0 °F 56% 29.91 in 10.0 mi SE 10.4 mph 20.7 mph N/A   Clear
10:55 PM 66.2 °F 50.0 °F 56% 29.91 in 10.0 mi SE 9.2 mph 18.4 mph N/A   Clear
11:15 PM 66.2 °F 50.0 °F 56% 29.90 in 10.0 mi SE 13.8 mph 25.3 mph N/A   Clear
11:35 PM 66.2 °F 50.0 °F 56% 29.89 in 10.0 mi ESE 16.1 mph 25.3 mph N/A   Clear
11:55 PM 64.4 °F 50.0 °F 59% 29.89 in 10.0 mi SE 17.3 mph - N/A   Clear